{"data":{"norad_id":56056,"intl_designator":"2023-043L","name":"ONEWEB-0554","alt_names":[],"object_type":"PAYLOAD","status":"ACTIVE","operator":null,"country":"UK","launch_date":"2023-03-26","launch_site_code":"SRILR","launch_vehicle":null,"mission":null,"orbit_class":"UNKNOWN","rcs_meters":null,"size_class":null,"mass_kg":null,"dimensions":null,"purposes":["comms"],"wikipedia_slug":null,"has_3d_model":false,"image_url":null,"decayed_at":null,"tle_current":{"epoch":"2026-09-20T02:08:50.404128Z","epoch_age_seconds":57471,"freshness":"FRESH","line1":"1 56056U 23043L   26263.08947227  .00000052  00000+0  10195-3 0  9997","line2":"2 56056  87.9152 209.9406 0002512  80.5471 279.5944 13.16593643171449","mean_motion":13.16593643,"eccentricity":0.0002512,"inclination_deg":87.9152,"raan_deg":209.9406,"arg_perigee_deg":80.5471,"mean_anomaly_deg":279.5944,"bstar":0.00010195,"rev_number":17144,"period_min":109.3731545535,"perigee_km":1195.8559573833,"apogee_km":1199.662087545,"semimajor_km":7575.8960224642,"source":"CELESTRAK","updated_at":"2026-09-20T09:00:44.788457Z"}}}